Regional Weather Roundup
Issued by NWS Green Bay, WI

Home | Current Version | Previous Version | Graphics & Text | Print | Product List | Glossary Off
Versions: 1 2 3 4 5 6 7 8 9 10 11 12 13 14 15 16 17 18 19 20 21 22 23 24 25 26 27 28 29 30 31 32 33 34 35 36 37 38 39 40 41 42 43 44 45 46 47 48 49 50

027
ASUS43 KGRB 100100
RWRGRB

NORTH-CENTRAL AND NORTHEAST WISCONSIN REGIONAL WEATHER ROUNDUP
NATIONAL WEATHER SERVICE GREEN BAY WI
700 PM CST FRI DEC 09 2016

WIZ005-009-010>012-018-019-100200-
NORTH CENTRAL WISCONSIN

CITY           SKY/WX    TMP DP  RH WIND       PRES   REMARKS
IRONWOOD       CLOUDY    11   2  67 W10       30.41R WCI  -3
MANITOWISH WTR NOT AVBL
ARBOR VITAE    NOT AVBL
EAGLE RIVER    NOT AVBL
LAND O LAKES   NOT AVBL
RHINELANDER    CLOUDY    15   8  73 W5        30.36S WCI   8
PHILLIPS       CLOUDY    13   9  82 NW3       30.38S
ANTIGO         NOT AVBL
TOMAHAWK       NOT AVBL
MERRILL        NOT AVBL
$$

WIZ013-073-100200-
NORTHEAST WISCONSIN

CITY           SKY/WX    TMP DP  RH WIND       PRES   REMARKS
IRON MOUNTAIN  CLOUDY    16   3  56 W10       30.37S WCI   4
MARINETTE      CLOUDY    21   7  54 NW6       30.43R
$$

WIZ017-030-035>037-045-100200-
CENTRAL WISCONSIN

CITY           SKY/WX    TMP DP  RH WIND       PRES   REMARKS
MEDFORD        NOT AVBL
WAUSAU         CLOUDY    15   9  76 W10       30.41R WCI   2
MOSINEE        CLOUDY    16  10  79 W8        30.43S WCI   5
MARSHFIELD     CLOUDY    16  10  77 W5        30.41F WCI   9
WISC RAPIDS    CLOUDY    16  10  77 NW3       30.46S
STEVENS POINT  NOT AVBL
WAUPACA        NOT AVBL
SHAWANO        NOT AVBL
CLINTONVILLE   NOT AVBL
WAUTOMA        CLOUDY    16  11  80 CALM      30.47S
$$

WIZ038-039-048-051-100200-
FOX VALLEY

CITY           SKY/WX    TMP DP  RH WIND       PRES   REMARKS
NWS GREEN BAY  CLOUDY    22   8  55 NW10      30.45R
APPLETON       MOCLDY    18   7  62 W7        30.43S WCI   8
OSHKOSH        MOCLDY    17   7  64 W5        30.46R WCI  10
FOND DU LAC    PTCLDY    16   6  65 W3        30.46S
$$

WIZ022-050-052-100200-
EAST CENTRAL WISCONSIN

CITY           SKY/WX    TMP DP  RH WIND       PRES   REMARKS
EPHRAIM        NOT AVBL
WASHINGTON ISL NOT AVBL
STURGEON BAY   CLOUDY    22   8  55 W14       30.42R WCI   9
MANITOWOC      NOT AVBL
SHEBOYGAN      CLEAR     19   6  57 W6        30.46R
$$

LMZ563-521-522-541>543-100200-
LAKESHORE

STATION/POSITION TIME  TEMP    WIND        PRES    VSBY  WAVE
                       AIR SEA DIR/SP/G                  HT/PER
                 (UTC) (F)     (DEG/KT/KT) (MB)    (MI)  (FT/S)
SHEBOYGAN LKSHOR 0000   22     280/  9/ 11 1032.3R
KEWAUNEE LKSHORE 0030   23     290/  7/ 11 1029.9R
ALGOMA MARINA    2351          300/  9/ 16   N/A
NORTHPORT PIER   0040   24     280/  8/ 17 1029.1S
SISTER BAY LKSHO 0020   25     330/ 21/ 25   N/A
CHAMBERS ISLAND  0040   23     260/  5/ 17 1029.1S
MENOMINEE LKSHOR 0030   22     270/ 11/ 18 1029.2R
$$




USA.gov is the U.S. government's official web portal to all federal, state and local government web resources and services.